Location: Callao
(39.8979°N, 113.7141°W)
Time: 13:03:14
(UTC+00:00)

X-37B - Pass Details

Date: 14 March 2021
Orbit: 380 x 394 km, 45.0° (Epoch: 07 April)

Event Time Altitude Azimuth Distance (km) Brightness Sun altitude
Rises 02:34:02 0° 248° (WSW) 2,260 5.7 -11.2°
Reaches altitude 10° 02:36:06 10° 249° (WSW) 1,411 4.5 -11.5°
Maximum altitude 02:39:17 80° 336° (NNW) 399 0.6 -12.2°
Enters shadow 02:41:30 18° 63° (ENE) 1,028 2.2 -12.6°
